Flag for Brazil Weather past 2 weeks in Rio Branco, Acre, Brazil

Now
88 °F

Scattered clouds.


Feels Like: 90 °F
Forecast: 68 / 92 °F
Wind: 5 mph from North

Location: Rio Branco Airport

Current Time: Sep 17, 2014 at 2:39:59 PM

Latest Report: Sep 17, 2014 at 2:00 PM


Visibility: N/A

Pressure: 29.83 "Hg

Humidity: 49%

Dew point: 66 °F

Location of Rio BrancoLocation

Historic Weather in Rio Branco — Graph

°F

Rio Branco temperature yesterday

Maximum temperature yesterday: 86 °F (at 1:00 PM)
Minimum temperature yesterday: 70 °F (at 6:00 PM)
Average temperature yesterday: 75 °F

Past Weeks' High & Low Weather Summary

 TemperatureHumidityPressure
High97 °F (Sep 7, 3:00 PM)100% (Sep 5, 7:00 AM)30.04 "Hg (Sep 5, 7:00 AM)
Low66 °F (Sep 17, 5:00 AM)20% (Sep 7, 3:00 PM)29.68 "Hg (Sep 11, 4:00 PM)
Average79 °F72%29.88 "Hg
* Reported Sep 2 1:00 PM — Sep 17 1:00 PM, Rio Branco, Weather by CustomWeather, © 2014

Note: Actual official high and low records may vary slightly from our data, if they occured in-between our weather recording intervals... More about our weather records

Advertising

Rio Branco weather history for previous 24 hours

 ConditionsComfort  
Time TempWeatherWind HumidityBarometerVisibility
1:00 PM
Sep 17
88 °FScattered clouds.7 mph52%29.89 "HgN/A
12:00 PM86 °FScattered clouds.3 mph59%29.92 "HgN/A
11:00 AM84 °FScattered clouds.5 mph66%29.95 "HgN/A
10:00 AM81 °FScattered clouds.5 mph70%29.98 "HgN/A
9:00 AM79 °FScattered clouds.2 mph74%29.98 "HgN/A
8:00 AM75 °FScattered clouds.3 mph83%29.95 "HgN/A
7:00 AM70 °FFog.2 mph94%29.95 "Hg2 mi
6:00 AM66 °FFog.No wind100%29.92 "Hg2 mi
5:00 AM66 °FFog.No wind100%29.89 "Hg3 mi
4:00 AM68 °FClear.No wind94%29.89 "Hg10 mi
3:00 AM68 °FClear.No wind94%29.89 "Hg10 mi
2:00 AM68 °FClear.2 mph94%29.89 "Hg10 mi
1:00 AM68 °FClear.1 mph94%29.89 "Hg10 mi
12:00 AM68 °FClear.No wind100%29.92 "Hg10 mi
11:00 PM
Sep 16
70 °FClear.No wind94%29.92 "Hg10 mi
10:00 PM70 °FPartly cloudy.2 mph94%29.95 "HgN/A
9:00 PM70 °FThunderstorms. Partly cloudy.3 mph94%29.95 "HgN/A
8:00 PM72 °FThunderstorms. Partly cloudy.3 mph88%29.95 "HgN/A
7:00 PM70 °FThunderstorms. Passing clouds.6 mph88%29.92 "HgN/A
6:00 PM70 °FThunderstorms. Broken clouds.12 mph88%29.89 "HgN/A
5:00 PM73 °FBroken clouds.9 mph89%29.89 "HgN/A
4:00 PM73 °FThunderstorms. Broken clouds.9 mph89%29.89 "Hg3 mi
3:00 PM75 °FStrong thunderstorms. Broken clouds.9 mph89%N/A1 mi
2:00 PM82 °FBroken clouds.5 mph66%29.89 "HgN/A
Weather by CustomWeather, © 2014

See weather overviewHow to use our weather pages